Vertical_Velocity
-1 -2 -2 -1 -2 -1 -2 -2 -2 -2 -2 -2 -2 -4 -1 3 5 4 4 3 1 -0
2 2 1 1 1 1 -1 -2 -1 -1 0 -1 -0 -0 -2 -5 -4 -3 -1 1 2 4
1 2 2 1 2 2 2 2 0 0 0 -2 -3 -4 -4 -4 -6 -4 -2 -2 -5 -3
-0 -2 -2 -2 -0 -1 -1 -1 -1 1 1 1 3 5 7 5 3 -0 -1 -1 0 2
2 3 0 0 2 1 1 0 1 1 1 1 0 0 -1 -3 -2 1 0 -0 2 1
0 1 0 1 4 3 3 2 0 -1 -0 -0 -1 -0 -1 0 1 1 3 3 1 2
-0 2 1 -0 -1 -1 1 1 0 -0 1 1 2 3 -1 0 -0 0 -3 -5 -4 -5
1 2 2 0 1 1 -0 1 3 1 0 -0 -3 1 -1 0 1 2 3 2 1 1
1 0 1 1 2 2 0 0 -0 0 2 2 -0 -2 -4 -6 -2 -2 3 2 -0 -2
1 0 2 3 2 1 2 5 3 2 1 -1 2 4 2 2 0 2 1 2 3 -2
1 -0 -2 -3 -1 -1 2 1 1 1 2 4 5 3 5 4 2 2 3 1 5 3
2 -1 -1 -2 0 -1 -3 -2 -1 -1 2 -1 -2 2 11 3 1 5 3 0 2 1
-0 -1 -1 1 -1 -1 1 2 4 3 2 3 2 4 -10 -2 -4 2 4 0 2 2
1 -1 2 -0 1 -0 -1 -1 -2 2 3 5 7 5 -2 -3 -6 -0 2 -5 3 3
Height
1514 1513 1512 1511 1510 1508 1507 1505 1503 1501 1499 1497 1494 1492 1489 1487 1484 1482 1479 1477 1476 1475
1510 1509 1509 1508 1506 1505 1504 1502 1501 1499 1497 1494 1492 1489 1487 1485 1483 1481 1479 1477 1476 1474
1506 1505 1505 1504 1503 1502 1501 1499 1498 1496 1494 1491 1489 1487 1484 1482 1480 1478 1476 1474 1473 1474
1501 1500 1499 1498 1497 1497 1496 1496 1494 1493 1492 1490 1487 1485 1482 1479 1477 1475 1473 1472 1470 1466
1497 1496 1494 1493 1492 1492 1491 1491 1490 1489 1488 1486 1484 1482 1479 1478 1476 1474 1471 1470 1469 1467
1491 1489 1488 1487 1486 1486 1485 1485 1485 1485 1484 1483 1481 1479 1477 1475 1473 1472 1471 1468 1468 1467
1485 1484 1483 1482 1481 1480 1479 1479 1479 1479 1479 1478 1477 1475 1474 1472 1470 1468 1465 1464 1464 1463
1480 1478 1476 1475 1474 1473 1472 1472 1473 1472 1472 1472 1472 1471 1470 1469 1467 1466 1464 1461 1460 1457
1474 1473 1470 1468 1466 1465 1465 1464 1465 1465 1465 1465 1464 1464 1463 1464 1462 1462 1461 1458 1456 1455
1468 1466 1464 1462 1460 1459 1459 1459 1458 1457 1458 1458 1458 1457 1457 1457 1457 1455 1455 1454 1452 1452
1461 1460 1459 1456 1454 1453 1451 1452 1451 1451 1452 1452 1453 1453 1452 1452 1453 1452 1451 1450 1449 1448
1455 1453 1452 1449 1447 1446 1444 1443 1443 1443 1444 1444 1446 1448 1449 1447 1449 1449 1447 1447 1446 1445
1450 1447 1445 1443 1441 1439 1437 1436 1435 1435 1436 1437 1438 1439 1439 1442 1442 1445 1444 1444 1442 1442
1444 1441 1439 1436 1433 1430 1429 1428 1428 1428 1429 1431 1431 1431 1431 1432 1435 1440 1439 1440 1439 1439